Estación de La Cruz
Ultimos registro cada 15 minutos 74
| N° | Estación | Fecha / Hora | Temperatura | Humedad | Lluvia | Velocidad | Dirección | Radiación | Presion |
| 74 | La Cruz | 05-05-2026 18:15 | 13,3 | 85,2 | 0 | 0 | 188 | 0,6 | 997,3 |
| 73 | La Cruz | 05-05-2026 18:00 | 13,6 | 84,1 | 0 | 0 | 178 | 4,4 | 997,4 |
| 72 | La Cruz | 05-05-2026 17:45 | 14,1 | 82,3 | 0 | 0 | 168 | 16,9 | 997,5 |
| 71 | La Cruz | 05-05-2026 17:30 | 14,5 | 81,1 | 0 | 0 | 170 | 60,6 | 997,7 |
| 70 | La Cruz | 05-05-2026 17:15 | 14,6 | 80,4 | 0 | 0,5 | 178 | 66,9 | 997,3 |
| 69 | La Cruz | 05-05-2026 17:00 | 15,2 | 78,2 | 0 | 0,5 | 178 | 63,1 | 997 |
| 68 | La Cruz | 05-05-2026 16:45 | 16 | 76,2 | 0 | 0,5 | 177 | 114,4 | 996,1 |
| 67 | La Cruz | 05-05-2026 16:30 | 16,4 | 74,4 | 0 | 0,5 | 173 | 118,1 | 996,2 |
| 66 | La Cruz | 05-05-2026 16:15 | 17,3 | 71,7 | 0 | 0,5 | 185 | 95,6 | 995,9 |
| 65 | La Cruz | 05-05-2026 16:00 | 18,2 | 69,2 | 0 | 0 | 222 | 256,9 | 995,6 |
| 64 | La Cruz | 05-05-2026 15:45 | 18,9 | 67,8 | 0 | 0,5 | 202 | 171,9 | 995,4 |
| 63 | La Cruz | 05-05-2026 15:30 | 20,3 | 63,8 | 0 | 0,5 | 190 | 146,9 | 995,4 |
| 62 | La Cruz | 05-05-2026 15:15 | 19,9 | 65,4 | 0 | 0,5 | 239 | 463,1 | 995,4 |
| 61 | La Cruz | 05-05-2026 15:00 | 20,5 | 64,2 | 0 | 0,5 | 236 | 439,4 | 995,4 |
| 60 | La Cruz | 05-05-2026 14:45 | 19,7 | 65,1 | 0 | 0,5 | 240 | 425,6 | 995,1 |
| 59 | La Cruz | 05-05-2026 14:30 | 21,3 | 60,5 | 0 | 0,5 | 211 | 280,6 | 995,1 |
| 58 | La Cruz | 05-05-2026 14:15 | 20,6 | 61,5 | 0 | 1 | 227 | 470,6 | 994,9 |
| 57 | La Cruz | 05-05-2026 14:00 | 21,9 | 57,7 | 0 | 0,5 | 174 | 481,9 | 994,8 |
| 56 | La Cruz | 05-05-2026 13:45 | 22,1 | 56,8 | 0 | 0,5 | 233 | 623,1 | 995 |
| 55 | La Cruz | 05-05-2026 13:30 | 22,9 | 54,9 | 0 | 0,5 | 188 | 574,4 | 995 |
| 54 | La Cruz | 05-05-2026 13:15 | 22,9 | 54,3 | 0 | 0,5 | 191 | 385,6 | 995,2 |
| 53 | La Cruz | 05-05-2026 13:00 | 22,9 | 55,6 | 0 | 0,5 | 219 | 659,4 | 994,9 |
| 52 | La Cruz | 05-05-2026 12:45 | 22,5 | 55,6 | 0 | 0,5 | 219 | 659,4 | 995,1 |
| 51 | La Cruz | 05-05-2026 12:30 | 22,8 | 54,5 | 0 | 0 | 222 | 613,1 | 995,1 |
| 50 | La Cruz | 05-05-2026 12:15 | 22,5 | 54,4 | 0 | 0 | 188 | 621,9 | 995,1 |
| 49 | La Cruz | 05-05-2026 12:00 | 22 | 53,2 | 0 | 0 | 201 | 603,1 | 995,2 |
| 48 | La Cruz | 05-05-2026 11:45 | 21,8 | 52,1 | 0 | 0 | 209 | 499,4 | 995,2 |
| 47 | La Cruz | 05-05-2026 11:30 | 21,6 | 52,9 | 0 | 0 | 213 | 630,6 | 995,3 |
| 46 | La Cruz | 05-05-2026 11:15 | 21,5 | 52,6 | 0 | 0 | 211 | 620,6 | 995,3 |
| 45 | La Cruz | 05-05-2026 11:00 | 21,1 | 51,7 | 0 | 0 | 234 | 585,6 | 995,5 |
| 44 | La Cruz | 05-05-2026 10:45 | 20,6 | 53,1 | 0 | 0 | 174 | 578,1 | 995,2 |
| 43 | La Cruz | 05-05-2026 10:30 | 19,9 | 53,4 | 0 | 0 | 300 | 213,1 | 995,1 |
| 42 | La Cruz | 05-05-2026 10:15 | 20,1 | 52,4 | 0 | 0 | 337 | 486,9 | 994,8 |
| 41 | La Cruz | 05-05-2026 10:00 | 18,9 | 55,4 | 0 | 0 | 38 | 184,4 | 995,1 |
| 40 | La Cruz | 05-05-2026 09:45 | 19,6 | 50,6 | 0 | 0 | 67 | 88,1 | 995,1 |
| 39 | La Cruz | 05-05-2026 09:30 | 18,5 | 53,7 | 0 | 0 | 44 | 113,1 | 995,1 |
| 38 | La Cruz | 05-05-2026 09:15 | 16,7 | 62,8 | 0 | 0 | 310 | 64,4 | 995,2 |
| 37 | La Cruz | 05-05-2026 09:00 | 13,9 | 70,5 | 0 | 0 | 288 | 50,6 | 995,2 |
| 36 | La Cruz | 05-05-2026 08:45 | 11,1 | 85,5 | 0 | 0 | 216 | 60,6 | 995,5 |
| 35 | La Cruz | 05-05-2026 08:30 | 8,7 | 93,3 | 0 | 0 | 230 | 35,6 | 995,9 |
| 34 | La Cruz | 05-05-2026 08:15 | 7,9 | 93,6 | 0 | 0 | 232 | 11,9 | 996,1 |
| 33 | La Cruz | 05-05-2026 08:00 | 7,5 | 93,7 | 0 | 0 | 204 | 9,4 | 996,1 |
| 32 | La Cruz | 05-05-2026 07:45 | 7,1 | 94,1 | 0 | 0 | 190 | 5,6 | 996,1 |
| 31 | La Cruz | 05-05-2026 07:30 | 6,6 | 93,7 | 0 | 0 | 190 | 3,1 | 996 |
| 30 | La Cruz | 05-05-2026 07:15 | 7 | 93,7 | 0 | 0 | 190 | 0,6 | 996 |
| 29 | La Cruz | 05-05-2026 07:00 | 7,5 | 94,1 | 0 | 0 | 216 | 0,6 | 995,9 |
| 28 | La Cruz | 05-05-2026 06:45 | 7,4 | 94,6 | 0 | 0 | 257 | 0,6 | 995,6 |
| 27 | La Cruz | 05-05-2026 06:30 | 6,6 | 94,1 | 0 | 0 | 177 | 0,6 | 995,7 |
| 26 | La Cruz | 05-05-2026 06:15 | 6,7 | 94 | 0 | 0 | 171 | 0,6 | 995,7 |
| 25 | La Cruz | 05-05-2026 06:00 | 6,6 | 93,9 | 0 | 0 | 171 | 0,6 | 995,7 |
| 24 | La Cruz | 05-05-2026 05:45 | 6,9 | 94,1 | 0 | 0 | 171 | 0,6 | 995,4 |
| 23 | La Cruz | 05-05-2026 05:30 | 6,7 | 93,9 | 0 | 0 | 171 | 0,6 | 995,5 |
| 22 | La Cruz | 05-05-2026 05:15 | 6,8 | 93,9 | 0 | 0 | 171 | 0,6 | 995,4 |
| 21 | La Cruz | 05-05-2026 05:00 | 6,6 | 93,7 | 0 | 0 | 171 | 0,6 | 995,8 |
| 20 | La Cruz | 05-05-2026 04:45 | 6,6 | 93,8 | 0 | 0 | 171 | 0,6 | 995,7 |
| 19 | La Cruz | 05-05-2026 04:30 | 6,1 | 93,7 | 0 | 0 | 171 | 0,6 | 995,6 |
| 18 | La Cruz | 05-05-2026 04:15 | 6,3 | 93,5 | 0 | 0 | 171 | 0,6 | 995,4 |
| 17 | La Cruz | 05-05-2026 04:00 | 6,6 | 93,6 | 0 | 0 | 171 | 0,6 | 995,3 |
| 16 | La Cruz | 05-05-2026 03:45 | 6,9 | 93,3 | 0 | 0 | 171 | 0,6 | 995,4 |
| 15 | La Cruz | 05-05-2026 03:30 | 7,5 | 93,7 | 0 | 0 | 171 | 0,6 | 995,2 |
| 14 | La Cruz | 05-05-2026 03:15 | 7,3 | 94 | 0 | 0 | 171 | 0,6 | 995,2 |
| 13 | La Cruz | 05-05-2026 03:00 | 6,7 | 93,5 | 0 | 0 | 171 | 0,6 | 995,2 |
| 12 | La Cruz | 05-05-2026 02:45 | 7 | 93,5 | 0 | 0 | 171 | 0,6 | 995,4 |
| 11 | La Cruz | 05-05-2026 02:30 | 7,2 | 93,5 | 0 | 0 | 171 | 0,6 | 995,7 |
| 10 | La Cruz | 05-05-2026 02:15 | 7,2 | 93,3 | 0 | 0 | 171 | 0,6 | 996 |
| 9 | La Cruz | 05-05-2026 02:00 | 7,2 | 92,9 | 0 | 0 | 171 | 0,6 | 996,1 |
| 8 | La Cruz | 05-05-2026 01:45 | 7,4 | 93,1 | 0 | 0 | 171 | 0,6 | 996,2 |
| 7 | La Cruz | 05-05-2026 01:30 | 7,3 | 92,6 | 0 | 0 | 171 | 0,6 | 996,3 |
| 6 | La Cruz | 05-05-2026 01:15 | 7,5 | 92,4 | 0 | 0 | 171 | 0,6 | 996,3 |
| 5 | La Cruz | 05-05-2026 01:00 | 7,5 | 92,1 | 0 | 0 | 171 | 0,6 | 996,5 |
| 4 | La Cruz | 05-05-2026 00:45 | 7,8 | 92,3 | 0 | 0 | 171 | 0,6 | 996,7 |
| 3 | La Cruz | 05-05-2026 00:30 | 7,7 | 91,5 | 0 | 0 | 171 | 0,6 | 996,8 |
| 2 | La Cruz | 05-05-2026 00:15 | 8,1 | 91,5 | 0 | 0 | 171 | 0,6 | 996,8 |
| 1 | La Cruz | 05-05-2026 00:00 | 8,2 | 91,1 | 0 | 0 | 171 | 0,6 | 996,8 |